Location: Klein M�hlingen
(51.9472°N, 11.7453°E)
Time: 03:03:29
(UTC+00:00)

Meteor 1-16 Rocket - Pass Details

Date: 09 April 2020
Orbit: 791 x 907 km, 81.2° (Epoch: 25 May)

Event Time Altitude Azimuth Distance (km) Brightness Sun altitude
Rises 18:31:53 0° 186° (S) 3,320 7.1 -5.4°
Reaches altitude 10° 18:34:14 10° 184° (S) 2,407 6.4 -5.7°
Maximum altitude 18:39:40 77° 100° (E) 863 4.2 -6.5°
Drops below altitude 10° 18:45:20 10° 15° (NNE) 2,502 6.8 -7.3°
Sets 18:47:49 0° 14° (NNE) 3,461 7.5 -7.6°
